Regional Weather Roundup
Issued by NWS Northern Indiana

Home | Current Version | Previous Version | Text Only | Print | Product List | Glossary Off
Versions: 1 2 3 4 5 6 7 8 9 10 11 12 13 14 15 16 17 18 19 20 21 22 23 24 25 26 27 28 29 30 31 32 33 34 35 36 37 38 39 40 41 42 43 44 45 46 47 48 49 50

000
ASUS43 KIWX 231100
RWRIWX

KIWX WEATHER ROUNDUP
NATIONAL WEATHER SERVICE NORTHERN INDIANA
700 AM EDT TUE SEP 23 2014

NOTE: "FAIR" INDICATES FEW OR NO CLOUDS BELOW 12,000 FEET WITH NO
SIGNIFICANT WEATHER AND/OR OBSTRUCTIONS TO VISIBILITY.

* THESE STATIONS ARE NOT UNDER NWS QUALITY CONTROL. THEY ALSO MAY NOT
  REPORT WEATHER SUCH AS PRECIPITATION OR FOG.

INZ001>027-231200-
NORTHERN INDIANA

CITY           SKY/WX    TMP DP  RH WIND       PRES   REMARKS
GARY*          CLEAR     45  43  93 S3        30.32R
VALPARAISO     CLEAR     44  43  96 CALM      30.32R
SOUTH BEND     CLEAR     45  41  86 CALM      30.33R
ELKHART*       PTCLDY    43  43 100 CALM      30.32
GOSHEN         CLEAR    N/A N/A N/A CALM      30.32R
WARSAW*        CLEAR     41  41 100 CALM      30.32R FOG
ANGOLA*        MOCLDY    41  39  93 CALM      30.32R VSB 3/4
FORT WAYNE     CLEAR     41  39  93 CALM      30.34R
PERU/GRISSOM   CLEAR     45  45 100 SE1       30.32R FOG

$$
INZ028>050-231200-
CENTRAL INDIANA

CITY           SKY/WX    TMP DP  RH WIND       PRES   REMARKS
LAFAYETTE      CLEAR     44  43  96 CALM      30.32R
KOKOMO*        CLEAR     43  39  87 CALM      30.33R
MUNCIE*        CLEAR     41  39  93 CALM      30.32R FOG
INDIANAPOLIS   CLEAR     49  44  83 NE5       30.31R

$$
MIZ043>046-050>051-056>058-064>065-071>073-077>080-231200-
SOUTHWEST LOWER MICHIGAN

CITY           SKY/WX    TMP DP  RH WIND       PRES   REMARKS
BATTLE CREEK   CLEAR     46  42  86 S3        30.32R
BENTON HARBOR  CLEAR     42  41  96 CALM      30.31R
COLDWATER*     CLEAR     43  42  97 CALM      30.32R
HILLSDALE*     CLEAR     41  41 100 CALM      30.31S FOG
HOLLAND        CLEAR     47  43  86 S3        30.30R
GRAND RAPIDS   CLEAR     46  43  89 S3        30.30R
KALAMAZOO      CLEAR     43  41  93 CALM      30.32R
STURGIS*       CLEAR     43  41  93 CALM      30.32R
THREE RIVERS*  FAIR      44  43  97 CALM      30.32R FOG

$$
OHZ001>008-015>018-024>025-231200-
NORTHWEST OHIO

CITY           SKY/WX    TMP DP  RH WIND       PRES   REMARKS
DEFIANCE       CLEAR      1  32 100 CALM      30.33R
FINDLAY        CLEAR     43  39  86 CALM      30.31R
TOLEDO EXPRESS CLEAR     41  40  96 CALM      30.32R
TOLEDO METCALF FAIR      44  40  85 CALM      30.33R
LIMA           CLEAR     43  40  89 CALM      30.32R

$$
AND FOR LAKE MICHIGAN COASTAL AND OPEN LAKE BUOY OBSERVATIONS

STATION/POSITION TEMP    WIND        PRES    VSBY  WAVE
                 AIR SEA DIR/SP/G                  HT/PER
                 (F)     (DEG/KT/KT) (MB)    (MI)  (FT/S)
CALUMET HARBOR    51     230/  5/  7 1024.8R
SAINT JOSEPH      52      CALM  /  7 1025.7F
SOUTH LAKE BUOY   61 62  230/ 12/ 14 1025.2R         2/ 4
4 MI NW BRIDGMAN  58 64  180/  8/ 10   N/A           1/ 3
MICHIGAN CITY     56 63  190/ 10/ 10   N/A           1/ 2

$$
&&



USA.gov is the U.S. government's official web portal to all federal, state and local government web resources and services.